Home   Weather   La Ceiba   Past weeks

Flag for Honduras Past Weather in La Ceiba, Honduras — Yesterday and Last 2 Weeks

Now
90 °F

Passing clouds.


Feels Like: 105 °F
Forecast: 75 / 93 °F
Wind: 6 mph from North

Location: La Ceiba Airport

Current Time: May 24, 2017 at 11:45:31 am

Latest Report: May 24, 2017 at 11:00 am


Visibility: N/A

Pressure: 29.77 "Hg

Humidity: 71%

Dew Point: 79 °F

Location of La CeibaLocation

Past Weather in La Ceiba — Graph

°F

La Ceiba Temperature Yesterday

Maximum temperature yesterday: 91 °F (at 3:00 pm)
Minimum temperature yesterday: 73 °F (at 6:00 am)
Average temperature yesterday: 84 °F

High & Low Weather Summary for the Past Weeks

 TemperatureHumidityPressure
High93 °F (May 20, 1:00 pm)100% (May 15, 6:00 am)29.95 "Hg (May 15, 6:00 am)
Low70 °F (May 17, 6:00 am)26% (May 11, 1:00 pm)29.71 "Hg (May 18, 3:00 pm)
Average84 °F78%29.84 "Hg
* Reported May 9 10:00 am — May 24 10:00 am, La Ceiba. Weather by CustomWeather, © 2017

Note: Actual official high and low records may vary slightly from our data, if they occured in-between our weather recording intervals... More about our weather records

Advertising

La Ceiba Weather History for the Previous 24 Hours

Scroll right to see more
 ConditionsComfort  
Time TempWeatherWind HumidityBarometerVisibility
10:00 am
Wed, May 24
90 °FPassing clouds.6 mph71%29.77 "HgN/A
8:00 am86 °FSunny.No wind70%29.77 "Hg10 mi
6:00 am75 °FSunny.No wind94%29.77 "Hg10 mi
1:00 am77 °FPassing clouds.No wind94%29.80 "HgN/A
12:00 am77 °FPassing clouds.No wind94%29.80 "HgN/A
11:00 pm
Tue, May 23
79 °FPassing clouds.No wind94%29.80 "HgN/A
10:00 pm81 °FPassing clouds.No wind94%29.80 "HgN/A
9:00 pm81 °FPassing clouds.5 mph94%29.80 "HgN/A
8:00 pm82 °FPassing clouds.2 mph89%29.77 "HgN/A
7:00 pm82 °FPassing clouds.2 mph89%29.74 "HgN/A
6:00 pm84 °FPassing clouds.7 mph79%29.74 "HgN/A
5:00 pm86 °FPassing clouds.12 mph79%29.74 "HgN/A
4:00 pm90 °FScattered clouds.12 mph67%29.74 "HgN/A
3:00 pm91 °FScattered clouds.9 mph59%29.74 "HgN/A
2:00 pm90 °FScattered clouds.7 mph67%29.77 "HgN/A
1:00 pm88 °FScattered clouds.8 mph70%29.80 "HgN/A
11:00 am88 °FPassing clouds.6 mph62%29.86 "HgN/A
Weather by CustomWeather, © 2017

See weather overviewHow to use our weather pages